Regional Weather Roundup
Issued by NWS Midland/Odessa, TX

Skip options and go directly to product.
Home | Oldest Version | Previous Version | Current Version | All | Text Only | Save Text | Print | Product List | Glossary On

Skip product version selection by date and time.   
954
ASUS44 KMAF 300301
RWRMAF
MIDLAND AREA WEATHER ROUNDUP
NATIONAL WEATHER SERVICE MIDLAND TX
1000 PM CDT WED JUN 29 2016

...IN SOUTHWEST TEXAS AND SOUTHEAST NEW MEXICO...

CITY           SKY/WX    TMP DP  RH WIND       PRES   REMARKS
ALPINE         CLEAR     75  56  50 SE5       30.22R
ANDREWS        FAIR      83  56  40 S7        30.08S
ARTESIA        CLEAR     86  54  32 S9        30.06R
BIG SPRING     CLEAR     80  61  52 SE6       30.07R
CARLSBAD       CLEAR     85  52  32 S9        30.05R
DRYDEN           N/A     84  61  45 NE6       30.01R
FORT STOCKTON  CLEAR     84  59  42 SE10      30.07R
GUAD PASS      CLEAR     74  51  44 E14       30.24R
HOBBS          CLEAR     82  54  36 SE12      30.10S
MARFA          CLEAR    N/A N/A N/A E7        30.20R
MIDLAND AIRPK  CLEAR     86  60  42 SE8       30.06S
MIDLAND INTL   CLEAR     83  63  50 SE9       30.06R
ODESSA         CLEAR     85  61  44 SE10      30.08R
PECOS          CLEAR     85  57  38 E8        30.04R
PRESIDIO       FAIR      87  57  36 NE9       30.02R
SEMINOLE       PTCLDY    83  55  38 SE8       30.10R
SNYDER           N/A     80  65  60 SE7       30.06R
WINK           CLEAR     83  62  49 SE8       30.04R
$$
...OTHER STATIONS IN TEXAS...

CITY           SKY/WX    TMP DP  RH WIND       PRES   REMARKS
ABILENE        CLEAR     79  67  66 SE8       30.04R
AMARILLO       PTCLDY    77  59  53 SE14      30.08S
AUSTIN         CLEAR     83  73  72 E5        29.95R
BROWNSVILLE    CLOUDY    82  77  84 E7        29.94R
CORPUS CHRISTI PTCLDY    81  76  84 S6        29.93R
DALLAS FTW     PTCLDY    85  65  51 SE6       29.97R
DEL RIO        PTCLDY    91  65  41 E10       29.93R
EL PASO        PTCLDY    88  51  28 E14       30.06R
HOUSTON INT    PTCLDY    79  75  87 SE7       29.94R
LUBBOCK        MOCLDY    84  58  40 SE14      30.08R
SAN ANGELO     LGT RAIN  76  68  76 E7        30.03R
SAN ANTONIO    PTCLDY    81  67  62 E5        29.97R
WACO           CLEAR     82  67  60 E5        29.97R
WICHITA FALLS  NOT AVBL
$$
...OTHER LOCATIONS IN NEW MEXICO...

CITY           SKY/WX    TMP DP  RH WIND       PRES   REMARKS
ALAMAGORDO     CLEAR     82  54  36 SE9       30.09R
ALBUQUERQUE    CLOUDY    86  40  19 S7        30.15R
CANNON AFB     NOT AVBL
CLOVIS         CLEAR     79  54  41 S10       30.13R
HOLLOMAN AFB   PTCLDY    87  53  30 SE12      30.06R
ROSWELL        PTCLDY    87  52  29 S10       30.06R
RUIDOSO          N/A     73  46  38 SE10      30.33R
SANTA FE       CLOUDY    75  44  33 N10       30.26S
TRUTH OR CONSE PTCLDY    85  44  23 SE6       30.10R
TUCUMCARI      PTCLDY    84  50  30 N15       30.08R
$$

USA.gov is the U.S. government's official web portal to all federal, state and local government web resources and services.